sat.trackr.live / text

‹ back to catalog

QIANFAN-162

NORAD 69121 · 2026-108T

PAYLOAD ACTIVE UNKNOWN

§ Identity

Operator
Country
PRC
Launch date
2026-05-17
Launch site
WSC
Launch vehicle
Mass (kg)
RCS (m²)

External: N2YO · Heavens-Above · Gunter

§ Orbital elements

Epoch: 2026-09-20T03:23:46.815648Z

Period
106.59 min
Inclination
89.0195°
Eccentricity
0.0002132
Mean motion
13.51023140 rev/d
Perigee alt
1,066.9 km
Apogee alt
1,070.1 km
Semi-major
7,446.6 km
B*
1.5922e-4
RAAN
12.4955°
Arg perigee
99.2971°
Mean anomaly
260.8422°
Rev number
1,729

§ Raw data

QIANFAN-1621 69121U 26108T   26263.14151407  .00000115  00000+0  15922-3 0  99962 69121  89.0195  12.4955 0002132  99.2971 260.8422 13.51023140 17297

JSON: /api/v1/satellites/69121 · /tle

For live sub-satellite position, see the globe view (requires WebGL).

§ Visibility from observer

Set your observer location to see the next 7 days of passes ≥ 10°. The values pass through the URL so the page stays shareable.

No JS? Fill the form by hand. The geolocation button needs JavaScript.